Weather in Lesnoy

Belarus     54°00′16″N   27°41′12″E
temp.,
°C
wind,
m/s
gust,
m/s
humid.,
%
clouds,
%
prec.,
mm/h
press.,
hPa
HPBL,
m
21 june, mon
mon2100:00+19sse3108680 0.0 1018195
03:00+18se338867 0.0 101855
06:00+18ese358892 0.0 1017102
09:00+23ese5971100 0.0 1017435
12:00+26ese575570 0.0 1016817
15:00+27e575299 0.0 1015968
18:00+28e595711 0.0 10141140
21:00+23e512815 0.0 1014398
22 june, tue
tue2200:00+20ese413891 0.0 1014409
03:00+19se31095100 1.1 1014274
06:00+19se499699 0.0 1014258
09:00+23sse588334 0.0 1014555
12:00+27sse576339 0.2 10141494
15:00+30sse475333 0.3 10141917
18:00+29se465981 0.0 10141166
21:00+23se411765 0.1 1014277
23 june, wed
wed2300:00+20se4118547 0.0 1015223
03:00+18se38930 0.0 1016148
06:00+18se27930 0.0 1016169
09:00+23se46740 0.0 1016462
12:00+27sse46590 0.0 10171010
15:00+30sse46524 0.0 10161627
18:00+30ssw36540 0.0 10161687
21:00+25sse01725 0.1 101611
24 june, thu
thu2400:00+23sse22805 0.0 101730
03:00+20wsw2293100 0.8 101717
06:00+21e2292100 0.0 101744
09:00+25sse3474100 0.0 1017374
12:00+28se4560100 0.0 1017912
15:00+30s3448100 0.0 10161693
18:00+29sw345715 0.0 10151345
21:00+25nw11747 0.3 101511
25 june, fri
fri2500:00+20s2394100 1.5 101562
03:00+19s2290100 1.6 101437
06:00+19sse2489100 0.0 101595
09:00+22sse358068 0.1 1014221
12:00+28s466251 0.0 1014896
15:00+30s575222 0.0 10132132
18:00+30s585810 0.1 10111254
21:00+22sw7137767 0.8 1012447